Tracking 29892 objects as of 21-Nov-2024
HD Live streaming from Space Station
objects crossing your sky now

THORAD AGENA D DEB

Track THORAD AGENA D DEB now!
10-day predictions


NORAD ID: 42513
Int'l Code: 1970-025RT
Perigee: 932.6 km
Apogee: 951.0 km
Inclination: 100.0 °
Period: 103.7 minutes
Semi major axis: 7312 km
RCS: Unknown
Launch date: April 8, 1970
Source: United States (US)
Launch site: AIR FORCE WESTERN TEST RANGE (AFWTR)

Note: This is SATELLITE DEBRIS
Your satellite tracking list
Your tracking list is empty




NASA's NSSDC Master Catalog

Two Line Element Set (TLE):
1 42513U 70025RT  24325.57152221  .00002670  00000-0  22703-2 0  9991
2 42513  99.9770 248.3184 0012609 219.7366 140.2866 13.88285675 45975
Source of the keplerian elements: AFSPC